Regional Weather Roundup
Issued by NWS

Home | Current Version | Previous Version | Graphics & Text | Print | Product List | Glossary On
Versions: 1 2 3 4 5 6 7 8 9 10 11 12 13 14 15 16 17 18 19 20 21 22 23 24 25 26 27 28 29 30 31 32 33 34 35 36 37 38 39 40 41 42 43 44 45 46 47 48 49 50
000
ASUS45 KCYS 301010
RWRWY

WYOMING REGIONAL WEATHER ROUNDUP
NATIONAL WEATHER SERVICE CHEYENNE WY
400 AM MDT SAT AUG 30 2014

NOTE:  "FAIR" INDICATES FEW OR NO CLOUDS BELOW 12,000 FEET
WITH NO SIGNIFICANT WEATHER AND/OR OBSTRUCTIONS TO VISIBILITY.

WYZ001-301100-
YELLOWSTONE NATIONAL PARK

CITY           SKY/WX    TMP DP  RH WIND       PRES   REMARKS
LK YELLOWSTONE   N/A     44  41  89 CALM      30.15F
W YELLOWSTONE  NOT AVBL

$$
WYZ002>013-054>058-071-098>099-301100-
NORTHERN WYOMING

CITY           SKY/WX    TMP DP  RH WIND       PRES   REMARKS
JACKSON        PTCLDY    48  43  81 CALM      30.07F
CODY           PTCLDY    63  45  51 S5        29.93S
GREYBULL       CLEAR     58  46  64 CALM      29.87F
WORLAND        CLEAR     60  46  59 SE10      29.89S
SHERIDAN       CLEAR     49  45  86 W3        29.87F
BUFFALO        CLEAR     59  44  57 S6        29.93F
GILLETTE       PTCLDY    58  52  80 S13       29.93F
HULETT         FAIR      61  52  72 MISG      29.97
NEWCASTLE      FAIR      61  48  63 SE9       30.00

$$
WYZ014>020-022>026-101>103-301100-
CENTRAL WYOMING

CITY           SKY/WX    TMP DP  RH WIND       PRES   REMARKS
BIG PINEY      MOCLDY    46  42  86 NE3       30.13F
PINEDALE       CLOUDY    45  43  93 CALM      30.14F
DUBOIS         FAIR      46  36  66 CALM      30.10F
LANDER         PTCLDY    61  39  44 N6        29.99S
RIVERTON       PTCLDY    56  43  61 W6        30.00F
CASPER         CLEAR     65  43  44 SW9       30.00F
DOUGLAS        CLEAR     54  50  86 S6        30.01F

$$
WYZ021-027>030-104>119-301100-
SOUTHERN WYOMING

CITY           SKY/WX    TMP DP  RH WIND       PRES   REMARKS
EVANSTON       CLEAR     57  38  48 S7        30.12F
KEMMERER       MOSUNNY   48  41  76 N8        30.13F
FORT BRIDGER   FAIR      60  39  46 S9        30.14F
ROCK SPRINGS   PTCLDY    57  36  45 S7        30.13S
DIXON          FAIR      51  46  84 CALM      30.19S
RAWLINS        CLEAR     50  40  68 CALM      30.14F
SARATOGA       FAIR      54  43  66 SE10      30.18F
LARAMIE        CLEAR     47  41  80 S6        30.19S
CHEYENNE       CLEAR     51  45  79 S3        30.13S
TORRINGTON     PTCLDY    56  51  84 SE9       30.00F
PINE BLUFFS    FAIR      52  46  82 W7        30.10F

$$



USA.gov is the U.S. government's official web portal to all federal, state and local government web resources and services.